SP5MRF Weather Reports


time (UTC)temp
F
wind
direction
speed
knots
gust
knots
rain 1hr
in
rain 24hr
in
rain mn
in
humidity
%
barometer
mb
20260505032557 51 337 0.0 0.0 0.00 0.00 0.00 68 1006.4
20260505031757 51 337 0.0 0.0 0.00 0.00 0.00 67 1006.4
20260505030957 51 337 0.0 0.0 0.00 0.00 0.00 67 1006.3
20260505030157 51 337 0.0 0.0 0.00 0.00 0.00 66 1006.3
20260505025358 51 337 0.0 0.0 0.00 0.00 0.00 66 1006.5
20260505024557 52 337 0.0 0.0 0.00 0.00 0.00 66 1006.4
20260505023757 52 337 0.0 0.0 0.00 0.00 0.00 65 1006.4
20260505022957 52 337 0.0 0.0 0.00 0.00 0.00 65 1006.4
20260505022157 52 337 0.0 0.0 0.00 0.00 0.00 65 1006.7
20260505021359 52 337 0.0 0.0 0.00 0.00 0.00 65 1006.8
20260505020557 52 337 0.0 0.0 0.00 0.00 0.00 64 1006.6
20260505015759 52 337 0.0 0.0 0.00 0.00 0.00 64 1006.5
20260505014957 52 337 0.0 0.0 0.00 0.00 0.00 63 1006.7
20260505014158 53 337 0.0 0.0 0.00 0.00 0.00 63 1006.5
20260505013357 53 337 0.0 0.0 0.00 0.00 0.00 62 1006.5
20260505012557 53 337 0.0 0.0 0.00 0.00 0.00 62 1006.4
20260505011757 53 337 0.0 0.0 0.00 0.00 0.00 62 1006.6
20260505010958 53 337 0.0 0.0 0.00 0.00 0.00 61 1006.7
20260505010158 54 337 0.0 0.0 0.00 0.00 0.00 61 1006.6
20260505005358 54 337 0.0 0.0 0.00 0.00 0.00 61 1006.5
20260505004558 54 337 0.0 0.0 0.00 0.00 0.00 61 1006.4
20260505003758 54 337 0.0 0.0 0.00 0.00 0.00 59 1006.6
20260505002958 55 337 0.0 0.0 0.00 0.00 0.00 59 1006.5
20260505002158 55 337 0.0 0.0 0.00 0.00 0.00 58 1006.7
20260505001358 55 337 0.0 0.0 0.00 0.00 0.00 58 1006.5
20260505000558 55 337 0.0 0.0 0.00 0.00 0.00 57 1006.6
20260504235758 56 337 0.0 0.0 0.00 0.00 0.00 57 1006.5
20260504234958 56 337 0.0 0.0 0.00 0.00 0.00 56 1006.7
20260504234158 56 337 0.0 0.0 0.00 0.00 0.00 56 1006.6
20260504233358 57 337 0.0 0.0 0.00 0.00 0.00 55 1006.8
20260504232558 57 337 0.0 0.0 0.00 0.00 0.00 55 1006.7
20260504231758 57 337 0.0 0.0 0.00 0.00 0.00 55 1006.8
20260504230958 58 337 0.0 0.0 0.00 0.00 0.00 54 1006.7
20260504230158 59 337 0.0 0.0 0.00 0.00 0.00 54 1006.9
20260504225358 59 337 0.0 0.0 0.00 0.00 0.00 53 1006.7
20260504224558 60 337 0.0 0.0 0.00 0.00 0.00 53 1006.8
20260504223758 60 337 0.0 0.0 0.00 0.00 0.00 52 1006.8
20260504222958 60 337 0.0 0.0 0.00 0.00 0.00 52 1006.8
20260504222158 61 337 0.0 0.0 0.00 0.00 0.00 52 1006.7
20260504221358 61 337 0.0 0.0 0.00 0.00 0.00 51 1006.8
20260504220559 62 337 0.0 0.0 0.00 0.00 0.00 51 1006.9
20260504215758 62 337 0.0 0.0 0.00 0.00 0.00 50 1006.9
20260504214958 63 337 0.0 0.0 0.00 0.00 0.00 50 1006.9
20260504214158 63 337 0.0 0.0 0.00 0.00 0.00 49 1006.9
20260504213358 64 337 0.0 0.0 0.00 0.00 0.00 50 1006.9
20260504212558 64 337 0.0 0.0 0.00 0.00 0.00 50 1006.9
20260504211758 64 337 0.0 0.0 0.00 0.00 0.00 51 1006.9
20260504210958 62 337 0.0 0.0 0.00 0.00 0.00 52 1007.1
20260504210158 61 0 0.0 0.0 0.00 0.00 0.00 52 1006.8
20260504205358 60 0 0.0 0.0 0.00 0.00 0.00 49 1006.8
20260504204558 60 0 0.0 0.0 0.00 0.00 0.00 48 1006.8
20260504203758 60 0 0.0 0.0 0.00 0.00 0.00 47 1006.8
20260504202958 61 0 0.0 0.0 0.00 0.00 0.00 47 1006.8
20260504202158 61 0 0.0 0.0 0.00 0.00 0.00 46 1006.9
20260504201358 62 0 0.0 0.0 0.00 0.00 0.00 45 1006.8
20260504200558 62 0 0.0 0.0 0.00 0.00 0.00 44 1006.7
20260504195758 63 0 0.0 0.0 0.00 0.00 0.00 44 1006.7
20260504194958 64 0 0.0 0.0 0.00 0.00 0.00 43 1006.7
20260504194158 64 0 0.0 0.0 0.00 0.00 0.00 43 1006.7
20260504193358 65 0 0.0 0.0 0.00 0.00 0.00 43 1006.6
20260504192558 66 0 0.0 0.0 0.00 0.00 0.00 42 1006.8
20260504191758 66 0 0.0 0.0 0.00 0.00 0.00 41 1006.8
20260504190958 67 0 0.0 0.0 0.00 0.00 0.00 41 1006.6
20260504190158 67 0 0.0 0.0 0.00 0.00 0.00 39 1006.7
20260504185358 68 0 0.0 0.0 0.00 0.00 0.00 40 1006.6
20260504184558 68 0 0.0 0.0 0.00 0.00 0.00 38 1006.5
20260504183758 69 0 0.0 0.0 0.00 0.00 0.00 38 1006.5
20260504182958 70 0 0.0 0.0 0.00 0.00 0.00 37 1006.6
20260504182201 71 0 0.0 0.0 0.00 0.00 0.00 36 1006.6
20260504181358 72 0 0.0 0.0 0.00 0.00 0.00 37 1006.5
20260504180558 73 0 0.0 0.0 0.00 0.00 0.00 35 1006.4
20260504175758 74 0 0.0 0.0 0.00 0.00 0.00 36 1006.4
20260504174958 75 0 0.0 0.0 0.00 0.00 0.00 34 1006.4
20260504174158 76 0 0.0 0.0 0.00 0.00 0.00 34 1006.4
20260504173358 76 337 0.0 0.0 0.00 0.00 0.00 33 1006.3
20260504172558 77 0 0.0 5.2 0.00 0.00 0.00 33 1006.3
20260504171758 77 22 0.0 2.6 0.00 0.00 0.00 33 1006.2
20260504170958 78 0 0.0 0.0 0.00 0.00 0.00 32 1006.1
20260504170158 78 337 0.0 5.2 0.00 0.00 0.00 32 1006.2
20260504151000 81 22 0.0 4.3 0.00 0.00 0.00 30 1006.4
20260504150158 81 22 2.6 5.2 0.00 0.00 0.00 30 1006.5
20260504140600 82 337 0.0 4.3 0.00 0.00 0.00 29 1006.8
20260504130158 83 337 0.0 0.0 0.00 0.00 0.00 30 1007.4
20260504110159 82 22 0.0 3.5 0.00 0.00 0.00 29 1008.2
20260504081359 73 337 0.0 1.7 0.00 0.00 0.00 36 1009.8
20260504080559 72 337 0.0 3.5 0.00 0.00 0.00 36 1009.7
20260504070159 68 0 0.0 1.7 0.00 0.00 0.00 38 1009.9
20260504050159 57 0 0.0 1.7 0.00 0.00 0.00 55 1009.8
20260504045400 56 0 0.0 0.0 0.00 0.00 0.00 56 1009.9
20260504044559 55 0 0.0 0.0 0.00 0.00 0.00 57 1009.9
20260504043759 54 0 0.0 0.0 0.00 0.00 0.00 59 1009.8
20260504043000 53 0 0.0 0.0 0.00 0.00 0.00 60 1009.8
20260504042159 51 0 0.0 0.0 0.00 0.00 0.00 61 1009.7
20260504041359 50 0 0.0 0.0 0.00 0.00 0.00 61 1009.7
20260504040559 49 0 0.0 0.0 0.00 0.00 0.00 61 1009.7
20260504035759 48 0 0.0 0.0 0.00 0.00 0.00 61 1009.8
20260504034959 47 0 0.0 0.0 0.00 0.00 0.00 61 1009.8
20260504034159 47 0 0.0 0.0 0.00 0.00 0.00 60 1009.8
20260504033401 46 0 0.0 0.0 0.00 0.00 0.00 59 1009.9